User: anonymous   Login
Location: Unspecified
(0.0000°N, 0.0000°E)
Time: 18:24:46
(UTC+00:00)
Language:

LATINSAT B - Orbit

View from above orbital plane
View from above orbital plane
View from above satellite
View from above satellite

Ground track
Ground track

The orbit is defined by the following mean orbital elements,

1 27606U          26145.47506189 +.00000000 +00000-0 +80992-4 0 00004
2 27606  64.5545 320.2889 0087313 274.3769  84.7362 14.76988839    07
Epoch (UTC): 25 May 2026 11:24:05
Eccentricity: 0.0087313
inclination: 64.5545°
perigee height: 578 km
apogee height: 700 km
right ascension of ascending node: 320.2889°
argument of perigee: 274.3769°
revolutions per day: 14.76988839
mean anomaly at epoch: 84.7362°

The dashed part of the orbit path shows where the satellite is in the earth's shadow,  

DLR